Zurück zum Katalog

PSLV DEB

AktivSSO
NORAD 27585·DEBRIS·🇮🇳 India

Gestartet Oct 22, 2001 von Satish Dhawan Space Centre

Loading…

Nächste Überflüge (nächste 24 Stunden)

TLE

AktuellSource: Space-Track

Epoche: Sep 14, 2026, 01:14 UTC

1 27585U 01049ND  26257.05143626  .00001358  00000-0  15456-3 0  9991
2 27585  98.2820 293.6914 0050004   2.2108 357.9319 14.87151293315225

Verfolge PSLV DEB in Echtzeit mit AllMySat

Download on the App Store